QPF
0.07 0.06 0.05 0.07 0.10 0.11 0.12 0.11 0.10 0.11 0.13 0.13 0.12 0.09 0.07 0.06 0.06 0.06 0.04 0.04 0.05 0.06 0.06 0.05 0.04 0.03 0.03 0.03 0.03 0.03 0.04 0.04 0.02 0.01 0.01 0.02 0.02 0.02 0.01 0.01 0.01 0.01 0.01
0.07 0.07 0.06 0.06 0.07 0.10 0.13 0.13 0.12 0.11 0.12 0.14 0.14 0.12 0.09 0.07 0.08 0.07 0.07 0.08 0.08 0.07 0.05 0.05 0.03 0.02 0.03 0.03 0.02 0.02 0.02 0.03 0.03 0.02 0.02 0.02 0.02 0.02 0.01 0.00 0.01 0.01 0.01
0.04 0.06 0.06 0.06 0.06 0.08 0.15 0.16 0.16 0.16 0.15 0.16 0.18 0.18 0.17 0.13 0.11 0.10 0.10 0.09 0.08 0.06 0.05 0.05 0.04 0.03 0.02 0.02 0.02 0.01 0.01 0.02 0.02 0.02 0.01 0.01 0.02 0.02 0.02 0.02 0.02 0.01 0.01
0.03 0.04 0.06 0.06 0.06 0.10 0.15 0.16 0.18 0.19 0.19 0.18 0.18 0.20 0.23 0.20 0.18 0.17 0.15 0.12 0.10 0.08 0.06 0.04 0.04 0.04 0.03 0.02 0.02 0.01 0.01 0.01 0.01 0.02 0.01 0.01 0.02 0.02 0.03 0.02 0.02 0.01 0.01
0.04 0.04 0.06 0.06 0.06 0.07 0.12 0.16 0.15 0.16 0.17 0.19 0.19 0.18 0.21 0.21 0.20 0.23 0.22 0.18 0.15 0.11 0.08 0.06 0.06 0.06 0.05 0.04 0.03 0.02 0.02 0.02 0.01 0.01 0.01 0.01 0.01 0.01 0.02 0.02 0.02 0.02 0.01
0.08 0.08 0.10 0.11 0.10 0.11 0.12 0.12 0.11 0.12 0.15 0.18 0.20 0.21 0.20 0.18 0.19 0.19 0.15 0.14 0.14 0.10 0.08 0.07 0.06 0.05 0.05 0.05 0.04 0.04 0.04 0.03 0.02 0.02 0.02 0.01 0.01 0.01 0.02 0.02 0.02 0.02 0.02
0.11 0.14 0.15 0.14 0.14 0.15 0.15 0.15 0.14 0.14 0.15 0.18 0.19 0.19 0.16 0.14 0.14 0.11 0.11 0.10 0.10 0.09 0.09 0.07 0.05 0.05 0.06 0.05 0.06 0.05 0.04 0.04 0.03 0.03 0.03 0.02 0.02 0.01 0.02 0.03 0.03 0.03 0.02
0.12 0.12 0.15 0.15 0.15 0.15 0.17 0.17 0.16 0.15 0.16 0.15 0.14 0.13 0.12 0.10 0.11 0.10 0.11 0.10 0.09 0.09 0.09 0.09 0.08 0.07 0.07 0.07 0.06 0.05 0.05 0.04 0.05 0.05 0.04 0.04 0.03 0.02 0.03 0.03 0.03 0.02 0.02
0.18 0.13 0.13 0.14 0.14 0.15 0.16 0.16 0.16 0.16 0.14 0.15 0.15 0.15 0.13 0.12 0.12 0.11 0.12 0.10 0.09 0.09 0.09 0.08 0.06 0.04 0.04 0.04 0.04 0.03 0.03 0.03 0.04 0.03 0.03 0.02 0.02 0.02 0.02 0.02 0.02 0.03 0.02
0.17 0.15 0.14 0.14 0.14 0.15 0.15 0.15 0.17 0.18 0.18 0.21 0.21 0.18 0.16 0.13 0.12 0.12 0.12 0.09 0.07 0.07 0.06 0.05 0.05 0.04 0.04 0.04 0.04 0.04 0.03 0.04 0.05 0.04 0.03 0.03 0.02 0.02 0.02 0.02 0.02 0.03 0.03
0.19 0.19 0.18 0.17 0.17 0.20 0.21 0.20 0.18 0.17 0.18 0.19 0.17 0.17 0.17 0.15 0.13 0.11 0.10 0.08 0.07 0.07 0.07 0.05 0.05 0.05 0.05 0.05 0.04 0.05 0.05 0.05 0.03 0.03 0.03 0.03 0.02 0.02 0.02 0.02 0.02 0.02 0.02
0.17 0.18 0.19 0.19 0.21 0.24 0.26 0.25 0.23 0.20 0.18 0.16 0.15 0.15 0.15 0.13 0.13 0.14 0.15 0.15 0.14 0.13 0.12 0.11 0.11 0.10 0.08 0.07 0.05 0.04 0.04 0.03 0.02 0.02 0.02 0.02 0.02 0.02 0.02 0.02 0.02 0.02 0.02
0.17 0.20 0.22 0.23 0.24 0.22 0.21 0.21 0.21 0.21 0.22 0.21 0.19 0.19 0.21 0.21 0.21 0.21 0.20 0.19 0.19 0.17 0.15 0.13 0.11 0.09 0.07 0.05 0.03 0.02 0.02 0.01 0.01 0.01 0.01 0.01 0.01 0.01 0.01 0.01 0.01 0.02 0.02
0.11 0.14 0.18 0.18 0.17 0.16 0.15 0.15 0.15 0.15 0.17 0.16 0.17 0.17 0.17 0.16 0.16 0.14 0.12 0.12 0.11 0.10 0.09 0.08 0.06 0.05 0.03 0.02 0.01 0.01 0.01 0.01 0.02 0.02 0.02 0.01 0.01 0.01 0.01 0.01 0.01 0.01 0.01
0.07 0.09 0.11 0.11 0.10 0.08 0.07 0.07 0.07 0.08 0.10 0.12 0.14 0.16 0.15 0.12 0.10 0.09 0.08 0.07 0.07 0.06 0.06 0.04 0.03 0.02 0.02 0.02 0.02 0.01 0.02 0.02 0.02 0.02 0.02 0.02 0.02 0.02 0.02 0.02 0.02 0.02 0.01
0.03 0.03 0.04 0.05 0.04 0.04 0.03 0.03 0.03 0.02 0.02 0.04 0.06 0.08 0.09 0.08 0.08 0.06 0.05 0.05 0.06 0.06 0.06 0.05 0.05 0.04 0.03 0.03 0.04 0.04 0.03 0.03 0.02 0.02 0.02 0.03 0.02 0.03 0.03 0.03 0.03 0.04 0.03
0.02 0.02 0.02 0.01 0.01 0.01 0.01 0.01 0.01 0.01 0.01 0.02 0.02 0.03 0.03 0.03 0.03 0.03 0.04 0.04 0.06 0.07 0.08 0.09 0.09 0.08 0.07 0.06 0.05 0.04 0.04 0.03 0.03 0.03 0.02 0.02 0.02 0.03 0.03 0.03 0.04 0.04 0.03
0.03 0.02 0.03 0.02 0.01 0.01 0.01 0.01 0.01 0.01 0.02 0.02 0.02 0.02 0.02 0.01 0.01 0.02 0.03 0.03 0.04 0.05 0.06 0.08 0.09 0.09 0.09 0.08 0.07 0.07 0.06 0.05 0.05 0.04 0.04 0.04 0.04 0.05 0.05 0.04 0.04 0.04 0.03
0.00 0.00 0.01 0.01 0.01 0.01 0.01 0.01 0.01 0.02 0.02 0.02 0.01 0.01 0.01 0.02 0.02 0.01 0.01 0.01 0.02 0.03 0.03 0.03 0.03 0.03 0.03 0.03 0.03 0.03 0.03 0.03 0.03 0.03 0.04 0.04 0.04 0.04 0.04 0.04 0.04 0.04 0.04
0.00 0.00 0.01 0.02 0.02 0.02 0.02 0.02 0.02 0.02 0.02 0.02 0.01 0.01 0.01 0.01 0.00 0.00 0.00 0.00 0.01 0.01 0.01 0.01 0.01 0.00 0.01 0.01 0.01 0.01 0.02 0.02 0.02 0.02 0.02 0.03 0.03 0.04 0.04 0.04 0.04 0.04 0.04
0.00 0.00 0.00 0.01 0.00 0.00 0.01 0.01 0.01 0.01 0.01 0.00 0.00 0.00 0.00 0.00 0.00 0.00 0.00 0.00 0.00 0.00 0.00 0.00 0.00 0.00 0.00 0.00 0.01 0.01 0.02 0.02 0.02 0.02 0.02 0.02 0.03 0.03 0.03 0.04 0.04 0.04 0.05
0.00 0.00 0.00 0.00 0.00 0.00 0.00 0.00 0.00 0.00 0.00 0.00 0.00 0.00 0.00 0.00 0.00 0.00 0.01 0.01 0.00 0.01 0.01 0.00 0.01 0.00 0.00 0.01 0.01 0.01 0.01 0.01 0.02 0.02 0.02 0.01 0.01 0.02 0.02 0.03 0.03 0.04 0.05
0.00 0.00 0.00 0.00 0.00 0.00 0.00 0.00 0.00 0.00 0.00 0.00 0.00 0.00 0.00 0.00 0.00 0.00 0.01 0.01 0.01 0.01 0.01 0.01 0.01 0.01 0.01 0.01 0.01 0.01 0.01 0.02 0.02 0.02 0.02 0.02 0.02 0.02 0.02 0.02 0.02 0.03 0.03
0.00 0.00 0.00 0.00 0.00 0.00 0.00 0.00 0.00 0.00 0.00 0.00 0.00 0.00 0.00 0.00 0.00 0.00 0.01 0.01 0.01 0.01 0.01 0.01 0.01 0.01 0.01 0.01 0.00 0.00 0.01 0.01 0.02 0.03 0.03 0.03 0.02 0.02 0.02 0.02 0.02 0.02 0.02
0.00 0.00 0.00 0.00 0.00 0.00 0.00 0.00 0.00 0.00 0.00 0.00 0.00 0.00 0.00 0.00 0.00 0.01 0.01 0.01 0.01 0.01 0.01 0.01 0.01 0.01 0.01 0.01 0.01 0.01 0.01 0.01 0.02 0.02 0.02 0.03 0.03 0.02 0.02 0.01 0.02 0.02 0.02
0.00 0.00 0.00 0.00 0.00 0.00 0.00 0.00 0.00 0.00 0.00 0.00 0.01 0.01 0.01 0.01 0.02 0.02 0.02 0.01 0.01 0.00 0.01 0.01 0.01 0.01 0.02 0.03 0.03 0.02 0.01 0.01 0.01 0.01 0.01 0.01 0.01 0.01 0.01 0.01 0.01 0.01 0.02
MSLP
1006.59 1007.00 1007.51 1008.09 1008.67 1009.23 1009.74 1010.22 1010.68 1011.13 1011.61 1012.11 1012.65 1013.21 1013.76 1014.27 1014.73 1015.14 1015.47 1015.75 1016.00 1016.22 1016.44 1016.67 1016.90 1017.14 1017.37 1017.58 1017.77 1017.92 1018.03 1018.10 1018.12 1018.11 1018.05 1017.95 1017.81 1017.64 1017.45 1017.26 1017.08 1016.94 1016.86
1006.63 1006.95 1007.37 1007.86 1008.36 1008.88 1009.37 1009.86 1010.35 1010.85 1011.39 1011.95 1012.54 1013.13 1013.71 1014.24 1014.71 1015.09 1015.41 1015.65 1015.83 1015.99 1016.12 1016.26 1016.41 1016.57 1016.75 1016.93 1017.11 1017.29 1017.46 1017.61 1017.73 1017.80 1017.83 1017.80 1017.70 1017.54 1017.34 1017.11 1016.87 1016.66 1016.50
1006.86 1007.13 1007.47 1007.86 1008.29 1008.74 1009.19 1009.67 1010.17 1010.71 1011.29 1011.90 1012.53 1013.16 1013.75 1014.29 1014.74 1015.10 1015.37 1015.55 1015.67 1015.74 1015.79 1015.84 1015.90 1015.98 1016.10 1016.24 1016.41 1016.60 1016.81 1017.02 1017.22 1017.38 1017.48 1017.51 1017.46 1017.34 1017.14 1016.90 1016.64 1016.38 1016.16
1007.24 1007.48 1007.76 1008.08 1008.42 1008.80 1009.21 1009.65 1010.15 1010.70 1011.31 1011.95 1012.61 1013.25 1013.85 1014.37 1014.79 1015.11 1015.32 1015.43 1015.47 1015.46 1015.43 1015.39 1015.37 1015.38 1015.43 1015.53 1015.68 1015.88 1016.11 1016.35 1016.60 1016.82 1016.98 1017.08 1017.08 1017.00 1016.84 1016.61 1016.35 1016.08 1015.82
1007.70 1007.94 1008.19 1008.45 1008.72 1009.02 1009.37 1009.78 1010.25 1010.80 1011.42 1012.07 1012.73 1013.37 1013.95 1014.44 1014.81 1015.07 1015.21 1015.25 1015.22 1015.13 1015.03 1014.92 1014.83 1014.78 1014.78 1014.85 1014.97 1015.15 1015.38 1015.64 1015.91 1016.16 1016.37 1016.52 1016.57 1016.54 1016.42 1016.23 1016.00 1015.73 1015.48
1008.19 1008.45 1008.68 1008.90 1009.11 1009.35 1009.64 1010.00 1010.45 1010.98 1011.58 1012.23 1012.88 1013.49 1014.03 1014.47 1014.78 1014.97 1015.05 1015.02 1014.92 1014.77 1014.61 1014.45 1014.33 1014.24 1014.21 1014.24 1014.34 1014.50 1014.71 1014.96 1015.22 1015.48 1015.72 1015.89 1015.99 1016.00 1015.93 1015.79 1015.60 1015.37 1015.13
1008.66 1008.95 1009.18 1009.36 1009.53 1009.72 1009.95 1010.27 1010.69 1011.19 1011.77 1012.39 1013.01 1013.58 1014.08 1014.45 1014.70 1014.83 1014.83 1014.75 1014.60 1014.42 1014.23 1014.06 1013.92 1013.82 1013.78 1013.79 1013.87 1014.00 1014.18 1014.40 1014.64 1014.88 1015.11 1015.29 1015.41 1015.46 1015.43 1015.34 1015.20 1015.01 1014.80
1009.08 1009.40 1009.63 1009.79 1009.92 1010.07 1010.27 1010.55 1010.93 1011.41 1011.96 1012.54 1013.12 1013.65 1014.08 1014.40 1014.59 1014.65 1014.61 1014.49 1014.32 1014.13 1013.94 1013.78 1013.66 1013.58 1013.55 1013.56 1013.62 1013.72 1013.87 1014.04 1014.24 1014.44 1014.63 1014.80 1014.92 1014.98 1014.99 1014.93 1014.82 1014.68 1014.50
1009.45 1009.78 1010.01 1010.16 1010.26 1010.38 1010.55 1010.80 1011.16 1011.60 1012.13 1012.68 1013.22 1013.69 1014.08 1014.34 1014.47 1014.50 1014.42 1014.29 1014.12 1013.95 1013.80 1013.68 1013.60 1013.55 1013.55 1013.57 1013.62 1013.70 1013.80 1013.93 1014.06 1014.21 1014.35 1014.48 1014.57 1014.63 1014.64 1014.60 1014.51 1014.39 1014.23
1009.79 1010.12 1010.33 1010.46 1010.54 1010.64 1010.79 1011.02 1011.36 1011.78 1012.28 1012.80 1013.30 1013.73 1014.07 1014.29 1014.39 1014.39 1014.31 1014.18 1014.04 1013.91 1013.81 1013.75 1013.72 1013.73 1013.76 1013.80 1013.85 1013.90 1013.96 1014.03 1014.10 1014.17 1014.25 1014.32 1014.38 1014.41 1014.40 1014.36 1014.27 1014.14 1013.98
1010.14 1010.43 1010.62 1010.72 1010.78 1010.86 1011.00 1011.23 1011.55 1011.96 1012.43 1012.92 1013.39 1013.78 1014.08 1014.27 1014.36 1014.35 1014.29 1014.19 1014.09 1014.02 1013.98 1013.98 1014.01 1014.06 1014.12 1014.18 1014.22 1014.25 1014.26 1014.27 1014.27 1014.28 1014.29 1014.29 1014.29 1014.28 1014.24 1014.18 1014.08 1013.94 1013.76
1010.51 1010.76 1010.90 1010.97 1011.02 1011.09 1011.22 1011.45 1011.76 1012.16 1012.61 1013.07 1013.51 1013.88 1014.15 1014.33 1014.41 1014.41 1014.37 1014.31 1014.26 1014.24 1014.26 1014.31 1014.39 1014.48 1014.56 1014.61 1014.64 1014.64 1014.61 1014.56 1014.49 1014.43 1014.37 1014.32 1014.27 1014.21 1014.13 1014.04 1013.92 1013.76 1013.56
1010.94 1011.12 1011.21 1011.26 1011.29 1011.36 1011.50 1011.73 1012.04 1012.43 1012.86 1013.29 1013.70 1014.04 1014.29 1014.46 1014.54 1014.56 1014.54 1014.52 1014.52 1014.54 1014.60 1014.69 1014.80 1014.90 1014.98 1015.03 1015.03 1014.98 1014.91 1014.80 1014.68 1014.56 1014.44 1014.33 1014.24 1014.14 1014.04 1013.92 1013.77 1013.60 1013.39
1011.44 1011.55 1011.60 1011.63 1011.66 1011.74 1011.89 1012.12 1012.43 1012.80 1013.21 1013.62 1013.99 1014.30 1014.54 1014.69 1014.78 1014.81 1014.82 1014.83 1014.85 1014.91 1014.99 1015.09 1015.20 1015.29 1015.35 1015.36 1015.32 1015.24 1015.11 1014.95 1014.78 1014.61 1014.45 1014.31 1014.18 1014.05 1013.93 1013.80 1013.64 1013.46 1013.24
1012.00 1012.06 1012.08 1012.10 1012.15 1012.24 1012.41 1012.65 1012.97 1013.32 1013.71 1014.08 1014.42 1014.70 1014.91 1015.05 1015.13 1015.17 1015.20 1015.22 1015.26 1015.32 1015.41 1015.49 1015.58 1015.64 1015.65 1015.62 1015.53 1015.39 1015.22 1015.02 1014.81 1014.61 1014.42 1014.25 1014.10 1013.97 1013.83 1013.69 1013.54 1013.36 1013.14
1012.62 1012.65 1012.67 1012.71 1012.78 1012.92 1013.11 1013.37 1013.68 1014.03 1014.38 1014.72 1015.01 1015.25 1015.43 1015.55 1015.62 1015.66 1015.68 1015.71 1015.75 1015.80 1015.86 1015.92 1015.96 1015.97 1015.94 1015.85 1015.71 1015.53 1015.31 1015.07 1014.83 1014.61 1014.40 1014.22 1014.06 1013.91 1013.78 1013.64 1013.48 1013.31 1013.10
1013.29 1013.31 1013.36 1013.44 1013.57 1013.75 1013.98 1014.26 1014.58 1014.90 1015.23 1015.52 1015.77 1015.97 1016.11 1016.20 1016.24 1016.27 1016.28 1016.30 1016.32 1016.35 1016.38 1016.40 1016.40 1016.36 1016.27 1016.13 1015.94 1015.72 1015.47 1015.20 1014.94 1014.70 1014.47 1014.27 1014.10 1013.94 1013.80 1013.65 1013.49 1013.30 1013.09
1014.00 1014.05 1014.15 1014.29 1014.48 1014.72 1015.00 1015.31 1015.63 1015.94 1016.23 1016.48 1016.68 1016.83 1016.92 1016.98 1017.00 1017.00 1017.00 1016.99 1017.00 1017.00 1016.99 1016.97 1016.93 1016.84 1016.71 1016.53 1016.31 1016.06 1015.78 1015.49 1015.21 1014.94 1014.70 1014.47 1014.27 1014.08 1013.90 1013.72 1013.53 1013.33 1013.09
1014.75 1014.85 1015.01 1015.23 1015.49 1015.80 1016.12 1016.46 1016.78 1017.08 1017.33 1017.54 1017.69 1017.79 1017.85 1017.86 1017.85 1017.83 1017.81 1017.78 1017.76 1017.74 1017.70 1017.65 1017.57 1017.46 1017.30 1017.09 1016.85 1016.58 1016.28 1015.98 1015.67 1015.38 1015.09 1014.82 1014.57 1014.32 1014.08 1013.84 1013.59 1013.33 1013.05
1015.54 1015.70 1015.94 1016.23 1016.57 1016.93 1017.30 1017.65 1017.98 1018.26 1018.49 1018.65 1018.76 1018.82 1018.83 1018.81 1018.77 1018.72 1018.68 1018.63 1018.59 1018.54 1018.49 1018.41 1018.31 1018.18 1018.00 1017.79 1017.54 1017.26 1016.95 1016.63 1016.29 1015.96 1015.62 1015.29 1014.96 1014.63 1014.29 1013.96 1013.62 1013.27 1012.91
1016.39 1016.61 1016.91 1017.27 1017.66 1018.07 1018.47 1018.84 1019.16 1019.42 1019.62 1019.75 1019.82 1019.84 1019.82 1019.77 1019.70 1019.63 1019.56 1019.50 1019.43 1019.37 1019.30 1019.21 1019.09 1018.95 1018.77 1018.56 1018.31 1018.02 1017.70 1017.36 1016.99 1016.61 1016.21 1015.79 1015.36 1014.92 1014.48 1014.03 1013.58 1013.12 1012.66
1017.30 1017.56 1017.91 1018.31 1018.74 1019.18 1019.59 1019.96 1020.27 1020.51 1020.67 1020.77 1020.81 1020.80 1020.75 1020.68 1020.60 1020.51 1020.42 1020.33 1020.25 1020.17 1020.08 1019.97 1019.85 1019.70 1019.52 1019.31 1019.05 1018.76 1018.44 1018.07 1017.66 1017.22 1016.75 1016.24 1015.71 1015.15 1014.59 1014.02 1013.45 1012.88 1012.32
1018.26 1018.56 1018.92 1019.34 1019.78 1020.21 1020.61 1020.96 1021.25 1021.46 1021.60 1021.68 1021.70 1021.67 1021.61 1021.52 1021.42 1021.32 1021.21 1021.11 1021.01 1020.90 1020.78 1020.66 1020.52 1020.35 1020.16 1019.94 1019.68 1019.38 1019.04 1018.65 1018.20 1017.71 1017.16 1016.57 1015.94 1015.28 1014.60 1013.92 1013.25 1012.58 1011.94
1019.27 1019.57 1019.93 1020.34 1020.76 1021.16 1021.53 1021.84 1022.09 1022.28 1022.40 1022.46 1022.47 1022.44 1022.37 1022.28 1022.18 1022.07 1021.95 1021.82 1021.69 1021.55 1021.40 1021.24 1021.07 1020.88 1020.66 1020.42 1020.14 1019.82 1019.46 1019.04 1018.55 1018.01 1017.41 1016.75 1016.05 1015.31 1014.55 1013.80 1013.05 1012.32 1011.62
1020.29 1020.57 1020.91 1021.28 1021.65 1022.01 1022.32 1022.59 1022.80 1022.96 1023.06 1023.12 1023.13 1023.10 1023.05 1022.97 1022.88 1022.76 1022.63 1022.48 1022.32 1022.14 1021.94 1021.74 1021.52 1021.28 1021.02 1020.74 1020.43 1020.08 1019.69 1019.24 1018.73 1018.15 1017.51 1016.81 1016.06 1015.28 1014.48 1013.69 1012.91 1012.16 1011.44
1021.29 1021.54 1021.84 1022.15 1022.46 1022.75 1023.00 1023.22 1023.39 1023.53 1023.62 1023.68 1023.70 1023.70 1023.67 1023.62 1023.54 1023.43 1023.29 1023.12 1022.92 1022.70 1022.45 1022.18 1021.90 1021.60 1021.29 1020.96 1020.60 1020.21 1019.79 1019.31 1018.77 1018.18 1017.52 1016.80 1016.05 1015.26 1014.46 1013.67 1012.91 1012.17 1011.48
Thickness
5746 5744 5743 5741 5741 5741 5740 5739 5739 5739 5738 5738 5737 5736 5736 5735 5734 5733 5732 5731 5729 5727 5726 5725 5724 5725 5723 5722 5721 5720 5718 5715 5710 5713 5717 5719 5720 5719 5719 5717 5716 5714 5713
5746 5744 5742 5741 5739 5738 5737 5737 5737 5737 5736 5736 5736 5735 5734 5733 5732 5730 5729 5728 5725 5723 5723 5722 5721 5721 5719 5718 5717 5716 5715 5714 5710 5708 5710 5712 5713 5713 5712 5710 5710 5709 5708
5745 5742 5740 5739 5738 5736 5735 5735 5735 5734 5733 5733 5732 5731 5730 5730 5729 5728 5726 5724 5723 5721 5720 5719 5718 5716 5714 5714 5713 5711 5711 5711 5709 5705 5704 5705 5705 5706 5704 5703 5703 5702 5702
5744 5741 5739 5738 5737 5735 5734 5733 5732 5732 5730 5730 5729 5728 5727 5726 5725 5723 5722 5720 5719 5718 5717 5716 5714 5713 5711 5710 5709 5707 5706 5704 5702 5700 5698 5697 5697 5698 5696 5693 5691 5692 5692
5742 5739 5738 5737 5735 5733 5731 5730 5730 5729 5728 5727 5725 5724 5723 5721 5720 5718 5717 5716 5715 5713 5712 5711 5710 5710 5709 5707 5706 5703 5701 5698 5696 5693 5691 5689 5688 5687 5685 5685 5683 5682 5683
5739 5737 5735 5734 5732 5731 5729 5728 5726 5724 5723 5722 5720 5719 5718 5717 5716 5715 5715 5713 5711 5708 5706 5706 5705 5704 5704 5703 5702 5700 5698 5694 5690 5687 5684 5681 5681 5680 5679 5676 5673 5670 5669
5735 5733 5732 5731 5729 5727 5726 5724 5722 5720 5718 5716 5715 5714 5712 5711 5711 5710 5709 5707 5705 5703 5702 5700 5700 5700 5698 5696 5695 5694 5692 5690 5688 5683 5678 5676 5674 5673 5670 5667 5664 5661 5661
5731 5730 5729 5727 5725 5724 5722 5720 5718 5716 5713 5711 5709 5708 5707 5705 5705 5703 5702 5701 5698 5697 5696 5695 5693 5692 5691 5688 5687 5685 5683 5681 5679 5677 5674 5671 5669 5666 5663 5660 5656 5654 5653
5726 5725 5724 5723 5720 5718 5716 5714 5712 5710 5708 5706 5704 5702 5700 5699 5698 5697 5696 5693 5691 5689 5689 5687 5685 5683 5682 5680 5677 5674 5673 5672 5671 5669 5666 5663 5660 5657 5654 5648 5644 5640 5639
5719 5719 5719 5717 5715 5713 5710 5709 5707 5705 5702 5699 5697 5694 5693 5691 5690 5690 5688 5685 5682 5681 5679 5678 5677 5674 5672 5671 5667 5664 5662 5660 5659 5657 5654 5652 5649 5646 5643 5638 5634 5629 5625
5713 5713 5713 5711 5709 5707 5704 5702 5700 5697 5694 5691 5688 5685 5683 5682 5681 5680 5679 5677 5674 5672 5669 5667 5665 5664 5662 5661 5658 5655 5652 5649 5646 5644 5641 5639 5636 5633 5630 5627 5623 5618 5614
5705 5704 5704 5702 5701 5699 5696 5693 5691 5688 5684 5679 5677 5673 5672 5671 5671 5670 5668 5666 5664 5661 5658 5656 5654 5653 5651 5649 5646 5644 5641 5637 5633 5629 5626 5624 5621 5619 5617 5614 5611 5607 5604
5694 5693 5691 5689 5688 5687 5685 5682 5680 5677 5674 5669 5666 5662 5659 5658 5658 5658 5657 5655 5653 5650 5647 5645 5643 5641 5639 5636 5633 5630 5627 5623 5618 5614 5611 5609 5606 5604 5602 5599 5597 5594 5591
5682 5680 5679 5677 5675 5674 5672 5670 5668 5665 5662 5659 5655 5651 5648 5646 5645 5645 5644 5642 5641 5637 5634 5632 5630 5627 5624 5621 5618 5615 5611 5607 5603 5599 5596 5593 5591 5588 5585 5583 5580 5577 5575
5671 5669 5667 5665 5662 5659 5657 5654 5653 5651 5651 5648 5645 5642 5638 5635 5633 5632 5631 5629 5626 5624 5621 5618 5614 5610 5607 5604 5601 5597 5594 5590 5586 5583 5580 5577 5574 5572 5569 5567 5563 5560 5558
5660 5658 5656 5653 5651 5648 5645 5640 5638 5638 5637 5637 5635 5631 5627 5625 5623 5621 5619 5616 5613 5610 5606 5601 5596 5592 5588 5585 5582 5579 5576 5573 5570 5567 5564 5561 5558 5556 5553 5551 5548 5545 5543
5651 5649 5646 5644 5641 5638 5635 5633 5628 5625 5624 5622 5620 5618 5616 5613 5610 5608 5605 5602 5598 5595 5589 5583 5578 5575 5571 5568 5565 5562 5559 5556 5553 5550 5547 5544 5542 5540 5537 5535 5532 5530 5529
5643 5641 5638 5635 5632 5629 5626 5623 5620 5616 5611 5607 5606 5604 5602 5600 5597 5593 5590 5588 5581 5577 5571 5566 5562 5558 5554 5551 5548 5545 5542 5539 5537 5534 5532 5530 5527 5525 5522 5520 5517 5515 5514
5633 5631 5629 5626 5623 5619 5617 5613 5610 5605 5601 5596 5593 5591 5588 5585 5582 5578 5575 5569 5563 5558 5554 5550 5546 5542 5539 5536 5533 5530 5527 5524 5522 5520 5518 5516 5514 5511 5509 5507 5505 5503 5502
5623 5622 5619 5615 5612 5609 5605 5602 5598 5593 5589 5585 5581 5577 5574 5571 5566 5561 5557 5553 5548 5543 5539 5535 5532 5528 5525 5522 5519 5517 5514 5512 5509 5507 5505 5503 5501 5499 5497 5496 5494 5493 5492
5611 5609 5607 5604 5600 5597 5593 5589 5585 5582 5577 5573 5568 5565 5562 5557 5551 5547 5542 5538 5534 5529 5525 5522 5519 5516 5513 5510 5507 5504 5502 5499 5497 5494 5493 5491 5490 5489 5487 5487 5486 5485 5484
5600 5597 5594 5591 5587 5584 5580 5577 5573 5569 5564 5560 5555 5551 5547 5543 5537 5533 5529 5525 5521 5517 5513 5510 5507 5504 5501 5498 5495 5492 5489 5487 5485 5483 5482 5480 5480 5479 5478 5478 5478 5478 5477
5588 5585 5581 5578 5574 5571 5567 5563 5559 5555 5550 5545 5541 5536 5532 5527 5523 5519 5515 5511 5508 5504 5502 5499 5495 5492 5489 5487 5484 5481 5479 5476 5474 5473 5472 5471 5471 5471 5470 5471 5471 5471 5471
5576 5572 5568 5564 5561 5557 5553 5548 5545 5541 5536 5531 5526 5522 5517 5513 5509 5505 5501 5498 5495 5492 5490 5487 5483 5480 5477 5475 5473 5471 5469 5467 5466 5465 5464 5463 5463 5464 5464 5464 5465 5466 5467
5563 5559 5555 5551 5547 5543 5539 5535 5530 5526 5522 5517 5512 5508 5503 5499 5495 5492 5488 5486 5483 5480 5477 5474 5471 5469 5467 5465 5464 5462 5461 5461 5460 5459 5458 5458 5458 5458 5459 5460 5461 5462 5462
5551 5547 5543 5538 5534 5530 5526 5521 5517 5513 5508 5504 5499 5494 5490 5487 5483 5480 5477 5474 5471 5468 5465 5463 5461 5459 5457 5456 5455 5454 5454 5455 5455 5455 5454 5454 5453 5454 5454 5455 5456 5457 5458